WESTFORD NEEDLES, 2997

Orbit data source: Space-Track

WESTFORD NEEDLES, 2997 is space debris in LEO originally from a launch on Thu, 09 May 1963 UTC launched from the Air Force Western Test Range (AFWTR). Debris objects in space refer to the collection of defunct objects orbiting the Earth. Examples of debris include non-operational satellites, rocket bodies, and fragments generated from explosions, collisions, or faulty payload assembly.

Loading next visibility...
Identifier
2997, 1963-014AU
Orbit
LEO
Country
Flag of USUS
Related business
Manufacturer
Unknown
Mission
Spacecraft
Bus & Motor
Unknown
Mass
Unknown
Launch date (UTC)
1963-05-09 (63 years ago)
Launch vehicle
Unknown
Launch site
Air Force Western Test Range (AFWTR)
Object type
Payload
Rocket body
Debris
Shape & HBR
Unknown shape, 0.3 m
Radar Cross Section
Medium (>0.1 m² and <1 m²)

Expand to show TLE details & history
Last TLE update: 1 day ago

TLE from 1 day ago
0 WESTFORD NEEDLES
1 02997U 63014AU  26194.33573451 -.00000001  00000-0 -88716-3 0  9990
2 02997  86.7456 161.7256 0989989 207.7546 146.6945  8.78135411318764
Epoch: 2026-07-13T08:03Z
TLE epoch observation values (Epoch: 2026-07-13T08:03:27.461Z)
Latitude
0.00002°
Longitude
109.63946°
Altitude
4,395.449 km
Speed
5.818 km/s
True Right ascension
10h 46m 54s
True Declination
0° 00' 00"
Sunlit
Object was in daylight at epoch
Visualization orbit readout
Latitude
Unknown
Longitude
Unknown
Altitude
Unknown
Speed
Unknown
Apparent Right ascension
Unknown
Apparent Declination
Unknown
Sunlit
N/A
Visualization observer readout
Local Sidereal Time
22:39:38
Azimuth
Unknown
Elevation
Unknown
Doppler factor
Unknown
Orbital elements
Apogee altitude
4,526.071 km
Perigee altitude
2,561.547 km
Semi-major axis
9,921.946 km
Eccentricity
0.099
Inclination
86.7456°
RAAN
161.7256°
Arg. of periapsis
207.7546°
True anomaly
152.32907°
Mean anomaly
146.6945°
Eccentric anomaly
149.5676°
Mean motion
2.19608 °/min
Orbital period
163.93 mins
BSTAR
-0.00088716
Loading maneuver chart data...
Computing Atmospheric mass density...
Loading historical data...
Loading historical data...
Loading historical data...
Loading historical data...
Loading historical data...
Loading historical data...
Loading historical data...

Documentation

Showing up to 5 results
|